• In Spain
  • List of Countries
  • For 7 days
  • Water Temperature
  • Satellite Maps
  • Weather Map
  • Weather Widgets
  • user-avatar
    Login

    Hourly Weather Malanje

    Today, 18 August, Friday

    Time Temperature Precipitation Wind Pressure Humidity
    00:00 +20°C° 0 mm 3 mps 664 mmHg 64%
    01:00 +18°C° 0 mm 3 mps 664 mmHg 69%
    02:00 +18°C° 0 mm 2 mps 664 mmHg 74%
    03:00 +17°C° 0 mm 2 mps 664 mmHg 78%
    04:00 +16°C° 0 mm 2 mps 664 mmHg 82%
    05:00 +16°C° 0 mm 2 mps 664 mmHg 83%
    06:00 +16°C° 0 mm 2 mps 664 mmHg 83%
    07:00 +18°C° 0 mm 1 mps 665 mmHg 81%
    08:00 +22°C° 0 mm 1 mps 666 mmHg 64%
    09:00 +26°C° 0 mm 1 mps 667 mmHg 48%
    10:00 +28°C° 0 mm 0 mps 667 mmHg 32%
    11:00 +32°C° 0 mm 1 mps 667 mmHg 27%
    12:00 +34°C° 0 mm 1 mps 667 mmHg 21%
    13:00 +36°C° 0 mm 1 mps 667 mmHg 18%
    14:00 +35°C° 0 mm 1 mps 666 mmHg 17%
    15:00 +35°C° 0 mm 1 mps 666 mmHg 16%
    16:00 +34°C° 0 mm 1 mps 665 mmHg 15%
    17:00 +32°C° 0 mm 1 mps 665 mmHg 18%
    18:00 +30°C° 0 mm 1 mps 665 mmHg 20%
    19:00 +28°C° 0 mm 1 mps 665 mmHg 22%
    20:00 +27°C° 0 mm 1 mps 665 mmHg 26%
    21:00 +26°C° 0 mm 1 mps 665 mmHg 30%
    22:00 +25°C° 0 mm 1 mps 665 mmHg 34%
    23:00 +24°C° 0 mm 2 mps 665 mmHg 42%

    Tomorrow, 19 August, Saturday

    Time Temperature Precipitation Wind Pressure Humidity
    00:00 +23°C° 0 mm 2 mps 665 mmHg 49%
    01:00 +21°C° 0 mm 3 mps 665 mmHg 56%
    02:00 +20°C° 0 mm 2 mps 664 mmHg 61%
    03:00 +20°C° 0 mm 1 mps 664 mmHg 66%
    04:00 +19°C° 0 mm 1 mps 664 mmHg 72%
    05:00 +20°C° 0 mm 1 mps 664 mmHg 70%
    06:00 +20°C° 0 mm 1 mps 665 mmHg 69%
    07:00 +18°C° 0 mm 0 mps 665 mmHg 68%
    08:00 +24°C° 0 mm 1 mps 666 mmHg 54%
    09:00 +28°C° 0 mm 1 mps 667 mmHg 40%
    10:00 +32°C° 0 mm 1 mps 668 mmHg 26%
    11:00 +34°C° 0 mm 1 mps 668 mmHg 22%
    12:00 +36°C° 0 mm 1 mps 668 mmHg 18%
    13:00 +37°C° 0 mm 1 mps 667 mmHg 15%
    14:00 +37°C° 0 mm 1 mps 667 mmHg 15%
    15:00 +37°C° 0 mm 1 mps 666 mmHg 15%
    16:00 +36°C° 0 mm 1 mps 665 mmHg 15%
    17:00 +35°C° 0 mm 1 mps 665 mmHg 16%
    18:00 +33°C° 0 mm 1 mps 665 mmHg 18%
    19:00 +31°C° 0 mm 2 mps 665 mmHg 20%
    20:00 +30°C° 0 mm 2 mps 666 mmHg 25%
    21:00 +29°C° 0 mm 2 mps 666 mmHg 30%
    22:00 +28°C° 0 mm 3 mps 666 mmHg 35%
    23:00 +26°C° 0 mm 3 mps 666 mmHg 43%

    Day after tomorrow, 20 August, Sunday

    Time Temperature Precipitation Wind Pressure Humidity
    00:00 +25°C° 0 mm 3 mps 666 mmHg 51%
    01:00 +22°C° 0 mm 3 mps 665 mmHg 58%
    02:00 +21°C° 0 mm 3 mps 665 mmHg 62%
    03:00 +21°C° 0 mm 2 mps 665 mmHg 66%
    04:00 +20°C° 0 mm 2 mps 665 mmHg 69%
    05:00 +20°C° 0 mm 2 mps 665 mmHg 70%
    06:00 +19°C° 0 mm 2 mps 665 mmHg 71%
    07:00 +20°C° 0 mm 1 mps 666 mmHg 72%
    08:00 +24°C° 0 mm 1 mps 667 mmHg 59%
    09:00 +28°C° 0 mm 1 mps 668 mmHg 45%
    10:00 +31°C° 0 mm 1 mps 669 mmHg 31%
    11:00 +34°C° 0 mm 1 mps 668 mmHg 27%
    12:00 +36°C° 0 mm 1 mps 668 mmHg 22%
    13:00 +39°C° 0 mm 1 mps 668 mmHg 17%
    14:00 +37°C° 0 mm 1 mps 667 mmHg 18%
    15:00 +36°C° 0 mm 1 mps 666 mmHg 18%
    16:00 +35°C° 0 mm 1 mps 665 mmHg 19%
    17:00 +35°C° 0 mm 2 mps 666 mmHg 22%
    18:00 +32°C° 0 mm 2 mps 666 mmHg 24%
    19:00 +31°C° 0 mm 2 mps 666 mmHg 27%
    20:00 +29°C° 0 mm 3 mps 666 mmHg 32%
    21:00 +27°C° 0 mm 3 mps 667 mmHg 38%
    22:00 +26°C° 0 mm 3 mps 667 mmHg 44%
    23:00 +24°C° 0 mm 3 mps 666 mmHg 49%

    21 August, Monday

    Time Temperature Precipitation Wind Pressure Humidity
    00:00 +22°C° 0 mm 3 mps 666 mmHg 54%
    01:00 +21°C° 0 mm 3 mps 666 mmHg 58%
    02:00 +20°C° 0 mm 3 mps 665 mmHg 63%
    03:00 +19°C° 0 mm 3 mps 665 mmHg 67%
    04:00 +19°C° 0 mm 3 mps 664 mmHg 72%
    05:00 +18°C° 0 mm 2 mps 665 mmHg 73%
    06:00 +18°C° 0 mm 2 mps 665 mmHg 75%
    07:00 +18°C° 0 mm 2 mps 665 mmHg 76%
    08:00 +23°C° 0 mm 2 mps 666 mmHg 63%
    09:00 +26°C° 0 mm 2 mps 667 mmHg 50%
    10:00 +30°C° 0 mm 1 mps 668 mmHg 36%
    11:00 +32°C° 0 mm 1 mps 668 mmHg 31%
    12:00 +35°C° 0 mm 2 mps 667 mmHg 26%
    13:00 +38°C° 0 mm 2 mps 667 mmHg 20%
    14:00 +36°C° 0 mm 1 mps 666 mmHg 20%
    15:00 +35°C° 0 mm 1 mps 665 mmHg 20%
    16:00 +35°C° 0 mm 1 mps 664 mmHg 20%
    17:00 +34°C° 0 mm 2 mps 664 mmHg 23%
    18:00 +32°C° 0 mm 2 mps 665 mmHg 26%
    19:00 +30°C° 0 mm 3 mps 665 mmHg 29%
    20:00 +28°C° 0 mm 3 mps 665 mmHg 35%
    21:00 +26°C° 0 mm 4 mps 665 mmHg 41%
    22:00 +23°C° 0 mm 4 mps 665 mmHg 47%
    23:00 +22°C° 0 mm 4 mps 665 mmHg 53%

    22 August, Tuesday

    Time Temperature Precipitation Wind Pressure Humidity
    00:00 +21°C° 0 mm 3 mps 664 mmHg 58%
    01:00 +20°C° 0 mm 3 mps 664 mmHg 63%
    02:00 +20°C° 0 mm 3 mps 664 mmHg 66%
    03:00 +19°C° 0 mm 3 mps 664 mmHg 69%
    04:00 +18°C° 0 mm 2 mps 664 mmHg 72%
    05:00 +18°C° 0 mm 2 mps 664 mmHg 73%
    06:00 +18°C° 0 mm 2 mps 665 mmHg 74%
    07:00 +18°C° 0 mm 2 mps 665 mmHg 75%
    08:00 +23°C° 0 mm 1 mps 666 mmHg 61%
    09:00 +27°C° 0 mm 1 mps 667 mmHg 47%
    10:00 +31°C° 0 mm 1 mps 668 mmHg 33%
    11:00 +33°C° 0 mm 1 mps 667 mmHg 28%
    12:00 +36°C° 0 mm 2 mps 667 mmHg 24%
    13:00 +37°C° 0 mm 2 mps 666 mmHg 19%
    14:00 +37°C° 0 mm 2 mps 665 mmHg 18%
    15:00 +37°C° 0 mm 2 mps 665 mmHg 18%
    16:00 +36°C° 0 mm 2 mps 664 mmHg 17%
    17:00 +33°C° 0 mm 1 mps 664 mmHg 19%
    18:00 +31°C° 0 mm 1 mps 664 mmHg 22%
    19:00 +30°C° 0 mm 1 mps 664 mmHg 24%
    20:00 +28°C° 0 mm 2 mps 664 mmHg 29%
    21:00 +27°C° 0 mm 2 mps 664 mmHg 34%
    22:00 +26°C° 0 mm 3 mps 664 mmHg 39%
    23:00 +24°C° 0 mm 3 mps 664 mmHg 46%

    23 August, Wednesday

    Time Temperature Precipitation Wind Pressure Humidity
    00:00 +22°C° 0 mm 3 mps 664 mmHg 53%
    01:00 +20°C° 0 mm 3 mps 663 mmHg 60%
    02:00 +20°C° 0 mm 3 mps 663 mmHg 65%
    03:00 +19°C° 0 mm 3 mps 663 mmHg 70%
    04:00 +18°C° 0 mm 3 mps 663 mmHg 75%
    05:00 +18°C° 0 mm 2 mps 663 mmHg 76%
    06:00 +17°C° 0 mm 2 mps 664 mmHg 77%
    07:00 +17°C° 0 mm 2 mps 664 mmHg 78%
    08:00 +21°C° 0 mm 2 mps 665 mmHg 65%
    09:00 +26°C° 0 mm 2 mps 666 mmHg 51%
    10:00 +29°C° 0 mm 2 mps 667 mmHg 37%
    11:00 +32°C° 0 mm 2 mps 666 mmHg 31%
    12:00 +35°C° 0 mm 2 mps 666 mmHg 26%
    13:00 +37°C° 0 mm 2 mps 666 mmHg 20%
    14:00 +36°C° 0 mm 2 mps 665 mmHg 20%
    15:00 +36°C° 0 mm 2 mps 664 mmHg 20%
    16:00 +35°C° 0 mm 2 mps 664 mmHg 20%
    17:00 +32°C° 0 mm 2 mps 664 mmHg 24%
    18:00 +31°C° 0 mm 3 mps 664 mmHg 27%
    19:00 +30°C° 0 mm 3 mps 664 mmHg 30%
    20:00 +28°C° 0 mm 3 mps 664 mmHg 36%
    21:00 +26°C° 0 mm 4 mps 664 mmHg 42%
    22:00 +25°C° 0 mm 4 mps 664 mmHg 48%
    23:00 +22°C° 0 mm 4 mps 664 mmHg 55%
    Show more